This is the latest recevied weather packets stored in our database for station/object IR2UAZ-13. If no packets are shown the sender has not sent any weather packets the latest 10 day(s).
| Time | Temp. | Humidity | Pressure | Rain* | Wind** | Luminosity | Snow |
|---|---|---|---|---|---|---|---|
| 1788563330 | 19.44° C | 55% | 1031.8 hPa | - | - | - | - |
| 1788562129 | 19.44° C | 55% | 1031.9 hPa | - | - | - | - |
| 1788560929 | 19.44° C | 55% | 1032.1 hPa | - | - | - | - |
| 1788559729 | 19.44° C | 55% | 1032.2 hPa | - | - | - | - |
| 1788558528 | 19.44° C | 55% | 1032.3 hPa | - | - | - | - |
| 1788557328 | 19.44° C | 55% | 1032.5 hPa | - | - | - | - |
| 1788556128 | 19.44° C | 55% | 1032.6 hPa | - | - | - | - |
| 1788554928 | 19.44° C | 55% | 1032.7 hPa | - | - | - | - |
| 1788553727 | 19.44° C | 55% | 1033 hPa | - | - | - | - |
| 1788552527 | 19.44° C | 55% | 1033.1 hPa | - | - | - | - |
| 1788551327 | 19.44° C | 55% | 1032.9 hPa | - | - | - | - |
| 1788550126 | 19.44° C | 55% | 1033.1 hPa | - | - | - | - |
| 1788548926 | 19.44° C | 54% | 1032.8 hPa | - | - | - | - |
| 1788547726 | 19.44° C | 54% | 1032.9 hPa | - | - | - | - |
| 1788546525 | 19.44° C | 54% | 1032.7 hPa | - | - | - | - |
| 1788545325 | 20° C | 54% | 1032.5 hPa | - | - | - | - |
| 1788544125 | 20° C | 54% | 1032.5 hPa | - | - | - | - |
| 1788542941 | 20.56° C | 54% | 1032.6 hPa | - | - | - | - |
| 1788541724 | 21.67° C | 54% | 1032.7 hPa | - | - | - | - |
| 1788540524 | 22.22° C | 55% | 1032.7 hPa | - | - | - | - |
| 1788539323 | 21.67° C | 58% | 1033 hPa | - | - | - | - |
| 1788538123 | 20° C | 60% | 1033.1 hPa | - | - | - | - |
| 1788536923 | 20° C | 60% | 1033.2 hPa | - | - | - | - |
| 1788535722 | 19.44° C | 60% | 1033.3 hPa | - | - | - | - |
| 1788534521 | 19.44° C | 60% | 1033.4 hPa | - | - | - | - |
* Rain since midnight (hover to see other rain measurements)
** Current wind speed in m/s (hover to see current wind gust speed)